CW0621 Weather Reports


time (UTC)temp
F
wind
direction
speed
knots
gust
knots
rain 1hr
in
rain 24hr
in
rain mn
in
humidity
%
barometer
mb
20260904031552 68 276 0.0 0.0 0.00 0.00 0.00 91 1013.9
20260904030002 68 276 0.0 0.0 0.00 0.00 0.00 90 1014.0
20260904024530 69 276 0.0 0.0 0.00 0.00 0.00 90 1014.0
20260904023055 69 276 0.0 0.0 0.00 0.00 0.00 88 1013.7
20260904021524 69 276 0.0 0.0 0.00 0.00 0.00 88 1013.4
20260904020050 70 276 0.0 0.0 0.00 0.00 0.00 86 1013.3
20260904014511 71 276 0.0 0.0 0.00 0.00 0.00 85 1013.3
20260904013044 72 276 0.0 0.0 0.00 0.00 0.00 83 1013.4
20260904011503 72 276 0.0 0.0 0.00 0.00 0.00 82 1013.4
20260904010030 72 276 0.0 0.0 0.00 0.00 0.00 81 1013.5
20260904004556 73 321 0.0 0.0 0.00 0.00 0.00 80 1013.6
20260904003019 74 321 0.0 0.0 0.00 0.00 0.00 79 1013.8
20260904001552 74 173 0.0 0.0 0.00 0.00 0.00 77 1013.5
20260904000022 75 289 0.0 0.0 0.00 0.00 0.00 77 1013.5
20260903234555 75 230 0.0 2.6 0.00 0.00 0.00 78 1013.4
20260903233026 76 212 0.0 0.0 0.00 0.00 0.00 78 1013.1
20260903231556 76 293 0.0 0.0 0.00 0.00 0.00 79 1013.1
20260903230032 76 262 0.0 0.0 0.00 0.00 0.00 78 1012.9
20260903224547 76 132 0.0 0.9 0.00 0.00 0.00 78 1012.9
20260903223012 77 343 0.0 1.7 0.00 0.00 0.00 77 1013.2
20260903221541 77 30 0.0 2.6 0.00 0.00 0.00 79 1013.0
20260903220009 76 39 0.0 5.2 0.00 0.00 0.00 81 1013.3
20260903214534 78 24 3.5 10.4 0.00 0.00 0.00 78 1013.5
20260903213003 80 24 2.6 9.6 0.00 0.00 0.00 76 1012.9
20260903211533 80 38 2.6 7.8 0.00 0.00 0.00 74 1012.6
20260903210057 79 51 0.9 8.7 0.00 0.00 0.00 77 1012.7
20260903204520 78 330 0.0 6.1 0.00 0.00 0.00 81 1013.0
20260903203047 77 328 0.0 3.5 0.00 0.00 0.00 84 1013.0
20260903201524 75 34 0.0 3.5 0.00 0.00 0.00 84 1012.8
20260903200045 76 49 0.9 7.8 0.00 0.00 0.00 80 1012.4
20260903194503 81 76 0.0 8.7 0.00 0.00 0.00 68 1012.0
20260903193033 90 113 0.0 3.5 0.00 0.00 0.00 58 1011.3
20260903191557 94 71 0.0 0.9 0.00 0.00 0.00 54 1011.4
20260903190022 94 99 0.0 6.1 0.00 0.00 0.00 54 1011.2
20260903184547 94 107 0.0 1.7 0.00 0.00 0.00 55 1011.8
20260903183011 93 96 0.0 5.2 0.00 0.00 0.00 55 1012.4
20260903181538 93 210 0.0 4.3 0.00 0.00 0.00 56 1012.4
20260903180012 93 78 0.0 4.3 0.00 0.00 0.00 55 1012.5
20260903174530 94 81 0.0 0.9 0.00 0.00 0.00 55 1012.6
20260903173057 94 164 0.0 0.9 0.00 0.00 0.00 58 1012.3
20260903171520 94 162 0.0 0.0 0.00 0.00 0.00 56 1012.2
20260903170055 93 230 0.0 0.9 0.00 0.00 0.00 56 1012.2
20260903164512 93 71 0.0 3.5 0.00 0.00 0.00 56 1012.4
20260903163038 91 122 0.0 1.7 0.00 0.00 0.00 60 1012.6
20260903161559 91 107 0.0 0.9 0.00 0.00 0.00 60 1012.9
20260903160023 89 138 0.0 0.0 0.00 0.00 0.00 63 1013.1
20260903154558 89 137 0.0 0.0 0.00 0.00 0.00 63 1013.2
20260903153015 88 106 0.0 0.0 0.00 0.00 0.00 64 1013.2
20260903151542 87 53 0.0 0.0 0.00 0.00 0.00 65 1013.2
20260903150005 85 167 0.0 0.0 0.00 0.00 0.00 69 1013.1
20260903144530 84 84 0.0 0.0 0.00 0.00 0.00 72 1013.1
20260903143106 83 122 0.0 0.0 0.00 0.00 0.00 75 1013.2
20260903141531 81 87 0.0 0.0 0.00 0.00 0.00 77 1013.0
20260903140047 81 114 0.0 0.0 0.00 0.00 0.00 77 1013.1
20260903134509 80 106 0.0 0.0 0.00 0.00 0.00 80 1013.2
20260903133036 79 84 0.0 0.0 0.00 0.00 0.00 81 1013.3
20260903131503 78 229 0.0 0.0 0.00 0.00 0.00 83 1013.3
20260903130024 78 79 0.0 0.0 0.00 0.00 0.00 83 1013.3
20260903124552 77 210 0.0 0.0 0.00 0.00 0.00 86 1013.4
20260903123017 77 210 0.0 0.0 0.00 0.00 0.00 86 1013.7
20260903121543 76 104 0.0 0.0 0.00 0.00 0.00 87 1013.7
20260903120009 75 104 0.0 0.0 0.00 0.00 0.00 88 1013.6
20260903114537 75 124 0.0 0.0 0.00 0.00 0.00 89 1013.6
20260903113003 75 81 0.0 0.0 0.00 0.00 0.00 89 1013.4
20260903111543 74 91 0.0 0.0 0.00 0.00 0.00 91 1013.3
20260903104529 73 75 0.0 0.0 0.00 0.00 0.00 93 1013.1
20260903103104 73 98 0.0 0.0 0.00 0.00 0.00 93 1013.1
20260903101626 73 89 0.0 0.0 0.00 0.00 0.00 93 1013.0
20260903100058 73 89 0.0 0.0 0.00 0.00 0.00 94 1013.0
20260903094523 73 136 0.0 0.0 0.00 0.00 0.00 94 1012.9
20260903093101 73 349 0.0 0.0 0.00 0.00 0.00 93 1012.9
20260903091529 73 349 0.0 0.0 0.00 0.00 0.00 93 1012.7
20260903090047 73 282 0.0 0.0 0.00 0.00 0.00 93 1012.7
20260903084531 74 282 0.0 0.0 0.00 0.00 0.00 92 1012.7
20260903083039 74 282 0.0 0.0 0.00 0.00 0.00 92 1012.6
20260903081504 74 157 0.0 0.0 0.00 0.00 0.00 92 1012.6
20260903080031 74 209 0.0 0.0 0.00 0.00 0.00 92 1012.5
20260903074602 75 209 0.0 0.0 0.00 0.00 0.00 92 1012.5
20260903073028 75 209 0.0 0.0 0.00 0.00 0.00 92 1012.4
20260903071556 75 209 0.0 0.0 0.00 0.00 0.00 92 1012.5
20260903070025 75 209 0.0 0.0 0.00 0.00 0.00 92 1012.5
20260903064552 75 238 0.0 0.0 0.00 0.00 0.00 91 1012.6
20260903063013 76 238 0.0 0.0 0.00 0.00 0.00 90 1012.6
20260903061540 76 238 0.0 0.0 0.00 0.00 0.00 89 1012.6
20260903060003 76 247 0.0 0.0 0.00 0.00 0.00 89 1012.6
20260903054531 77 247 0.0 0.0 0.00 0.00 0.00 88 1012.6
20260903053100 77 77 0.0 0.0 0.00 0.00 0.00 87 1012.6
20260903051522 78 133 0.0 0.0 0.00 0.00 0.00 86 1012.4
20260903050048 78 246 0.0 0.0 0.00 0.00 0.00 85 1012.4
20260903044512 79 326 0.0 0.0 0.00 0.00 0.00 84 1012.2
20260903043038 79 248 0.0 0.0 0.00 0.00 0.00 85 1012.1
20260903041603 79 53 0.0 0.0 0.00 0.00 0.00 85 1012.0
20260903040026 79 142 0.0 0.0 0.00 0.00 0.00 85 1011.9
20260903034553 79 64 0.0 0.9 0.00 0.00 0.00 85 1011.8
20260903033025 80 243 0.0 0.0 0.00 0.00 0.00 85 1011.8